07:37
Airports
History
Links
Donate
Help keep this website running!
PayPal
Bitcoin
This page is community maintained. The information is intended for PC simulator navigation or reference.
Always use approved charts for navigation.
0U6
Symms
Symms (0U6)
Caldwell, Idaho, United States (83607)
4
Lat/Lng:43° 34' 9.57" N / 116° 46' 36.5" W
43.569325 / -116.776805
Elevation:2680'ft / 817mMSL
ID / ICAO:0U6
Runways:1
Longest:32-14
Gravel 756m / 2,482ft
Nearby Weather06:56 GMT 2018-02-21
Nearby weather at KEUL, Caldwell Industrial located 8.7 nautical miles from 0U6
Altimeter: 30.18
Visibility: 10.0 statute miles
Wind: 8 knots (from 110°)
Temp: -4°c / 25°f
Humidity: 49.4%

METAR: KEUL 210656Z AUTO 11008KT 10SM OVC100 M04/M13 A3018 RMK AO2 SLP249 T10391128 410111122 FZRANO

(Powered by phpweather)
Nearby VORs <50NM
Nearby NDBs
Runway 32 / 14
Dimensions:756.4 x 18.3m 2482' x 60'ft
Surface:Gravel
Runway 32 [A]Runway 14 [B]
Heading:332°TH 152°TH
Lat:
Lng:
43° 33' 58.67"N
116° 46' 28.5"W
43° 34' 20.47"N
116° 46' 44.5"W
User Notes and Comments
43° 34' 9.57" N / 116° 46' 36.5" W
Distance To
Airport ID:
Nearby Airports
4 Davison Ranch 6.3 NM
62U N 11°
4 Frank Field 7.1 NM
63U N
(U) Homedale Muni 7.9 NM
S66 WNW 293°
(U) Caldwell Industrial 8.7 NM
KEUL ( WX ) NE 54°
(R) Sunrise Skypark 11.1 NM
ID40 SSE 161°
4 Hubler Field 11.1 NM
64U NE 38°
(U) Nampa Muni 12.7 NM
KMAN E 86°
VFR Chart
Flight Planning at SkyVector.com